Montoursville, PA

2:06 AM EDT on September 29, 2016 (GMT -0400)
Williamsport Rgnl

Weather History for KIPT - October, 2014

Change the Weather History Date:

Saturday, October 4, 2014

  Actual Average Record
Temperature  
Mean Temperature 51 °F 56 °F  
Max Temperature 63 °F 66 °F 86 °F (1941)
Min Temperature 38 °F 46 °F 28 °F (1948)
Degree Days  
Heating Degree Days 14 9  
Month to date heating degree days 21 35  
Since 1 July heating degree days 102 163  
Cooling Degree Days 0 0  
Month to date cooling degree days 2 1  
Year to date cooling degree days 709 698  
Growing Degree Days 3 (Base 50)    
Moisture  
Dew Point 49 °F    
Average Humidity 61    
Maximum Humidity 86    
Minimum Humidity 36    
Precipitation  
Precipitation 0.29 in 0.11 in 3.70 in (1962)
Month to date precipitation 0.47 0.47  
Year to date precipitation 30.38 31.66  
Snow  
Snow 0.00 in 0.00 in T in (1965)
Month to date snowfall 0.0 0.0  
Since 1 July snowfall 0.0 0.0  
Since 1 September snowfall 0.0 0.0  
Snow Depth 0.00 in    
Sea Level Pressure  
Sea Level Pressure 29.64 in    
Wind  
Wind Speed 10 mph (WSW)    
Max Wind Speed 26 mph    
Max Gust Speed 34 mph    
Visibility 9 miles    
Events Rain    
T = Trace of Precipitation, MM = Missing Value Source: NWS Daily Summary

Daily Weather History Graph

Daily Weather History Graph

Search for Another Location

Airport or City:

Trip Planner

Search our weather history database for the weather conditions in past years. The results will help you decide how hot, cold, wet, or windy it might be!

Date:

Astronomy

Oct. 04, 2014 Rise Set
Actual Time 7:07 AM EDT 6:44 PM EDT
Civil Twilight 6:39 AM EDT 7:12 PM EDT
Nautical Twilight 6:07 AM EDT 7:43 PM EDT
Astronomical Twilight 5:35 AM EDT 8:16 PM EDT
Moon 4:22 PM EDT (10/4) 2:30 AM EDT (10/4)
Length of Visible Light 12h 32m
Length of Day
11h 37m
Waxing Gibbous, 81% of the Moon is Illuminated
Oct 4
Waxing Gibbous
Oct 8
Full
Oct 15
Last Quarter
Oct 23
New
Oct 30
First Quarter

Hourly Weather History & Observations

Time (EDT) Temp. Windchill Dew Point Humidity Pressure Visibility Wind Dir Wind Speed Gust Speed Precip Events Conditions
12:54 AM 63.0 °F - 57.9 °F 84% 29.65 in 10.0 mi SE 9.2 mph - 0.01 in   Overcast
1:14 AM 63.0 °F - 57.0 °F 81% 29.65 in 8.0 mi ESE 6.9 mph - 0.01 in Rain Light Rain
1:24 AM 62.1 °F - 57.0 °F 84% 29.65 in 5.0 mi East 8.1 mph - 0.02 in Rain Rain
1:54 AM 61.0 °F - 57.9 °F 90% 29.64 in 5.0 mi East 6.9 mph - 0.07 in Rain Rain
2:31 AM 61.0 °F - 57.0 °F 87% 29.63 in 4.0 mi SE 12.7 mph - 0.05 in Rain Light Rain
2:54 AM 62.1 °F - 57.9 °F 86% 29.60 in 8.0 mi SSE 12.7 mph - 0.06 in Rain Light Rain
3:54 AM 61.0 °F - 57.0 °F 87% 29.58 in 10.0 mi Variable 5.8 mph 19.6 mph 0.01 in   Overcast
4:39 AM 60.1 °F - 57.0 °F 90% 29.60 in 7.0 mi North - - 0.01 in Rain Rain
4:43 AM 60.1 °F - 57.0 °F 90% 29.60 in 4.0 mi North - - 0.01 in Rain Rain
4:47 AM 60.1 °F - 57.0 °F 90% 29.60 in 3.0 mi Calm Calm - 0.05 in Rain Rain
4:54 AM 60.1 °F - 57.0 °F 90% 29.59 in 7.0 mi NNE 4.6 mph - 0.05 in Rain Light Rain
5:05 AM 60.1 °F - 57.0 °F 90% 29.59 in 8.0 mi East 4.6 mph - 0.00 in Rain Light Rain
5:18 AM 60.1 °F - 57.0 °F 90% 29.58 in 10.0 mi East 4.6 mph - 0.00 in   Overcast
5:54 AM 60.1 °F - 57.0 °F 90% 29.58 in 10.0 mi Calm Calm - 0.00 in   Overcast
6:54 AM 60.1 °F - 57.0 °F 90% 29.59 in 10.0 mi Calm Calm - 0.01 in Rain Light Rain
7:42 AM 60.1 °F - 57.0 °F 90% 29.60 in 10.0 mi NW 4.6 mph - 0.00 in Rain Light Rain
7:54 AM 61.0 °F - 55.9 °F 83% 29.61 in 10.0 mi West 10.4 mph - 0.01 in   Overcast
8:54 AM 57.0 °F - 52.0 °F 83% 29.62 in 10.0 mi West 5.8 mph - 0.01 in   Overcast
9:54 AM 57.9 °F - 53.1 °F 84% 29.62 in 10.0 mi West 5.8 mph - 0.01 in   Overcast
10:54 AM 57.9 °F - 51.1 °F 78% 29.62 in 10.0 mi West 6.9 mph - 0.01 in Rain Light Rain
11:15 AM 57.0 °F - 52.0 °F 83% 29.62 in 6.0 mi West 4.6 mph - 0.01 in Rain Light Rain
11:54 AM 55.9 °F - 50.0 °F 80% 29.63 in 7.0 mi West 13.8 mph - 0.05 in Rain Rain
12:54 PM 55.0 °F - 45.0 °F 69% 29.63 in 10.0 mi West 17.3 mph 23.0 mph 0.00 in   Overcast
1:54 PM 59.0 °F - 41.0 °F 51% 29.61 in 10.0 mi West 16.1 mph 23.0 mph N/A   Overcast
2:54 PM 60.1 °F - 36.0 °F 41% 29.61 in 10.0 mi West 16.1 mph 25.3 mph N/A   Clear
3:54 PM 60.1 °F - 34.0 °F 38% 29.62 in 10.0 mi West 15.0 mph 23.0 mph N/A   Scattered Clouds
4:54 PM 59.0 °F - 34.0 °F 39% 29.64 in 10.0 mi West 18.4 mph 27.6 mph N/A   Scattered Clouds
5:54 PM 53.1 °F - 35.1 °F 50% 29.66 in 10.0 mi WSW 13.8 mph - N/A   Scattered Clouds
6:54 PM 48.9 °F - 35.1 °F 59% 29.70 in 10.0 mi West 13.8 mph 25.3 mph N/A   Clear
7:54 PM 48.2 °F - 33.8 °F 58% 29.70 in 10.0 mi West 18.4 mph 24.2 mph N/A   Clear
8:54 PM 46.9 °F - 34.0 °F 61% 29.73 in 10.0 mi West 15.0 mph - N/A   Clear
9:54 PM 44.1 °F 40.8 °F 34.0 °F 68% 29.77 in 10.0 mi WSW 5.8 mph - N/A   Mostly Cloudy
10:54 PM 44.1 °F 39.5 °F 34.0 °F 68% 29.78 in 10.0 mi West 8.1 mph - N/A   Clear
11:54 PM 43.0 °F - 33.1 °F 68% 29.78 in 10.0 mi Calm Calm - N/A   Clear